STARLINK-34571 (64914 NORAD) Tracking and Keplerian Element Data

This shows tracking and keplerian element data for the satellite.

Feedback or suggestion? Click here.




ElementValue
Catalog64914
NameSTARLINK-34571
Epoch Orbit2386
Epoch Day354.23477732
Epoch Year2025
RAAN357.9401
Inclination53.1585
Eccentricity0.0002361
Argument of Perigee137.7342
Mean Anonmoly222.3845
Mean Motion15.39641654
Decay Rate0.00027814
L11 64914U 25157L 25354.23477732 .00027814 00000+0 70228-3 0 9991
L22 64914 53.1585 357.9401 0002361 137.7342 222.3845 15.39641654 23860



Live tracking and technical data element details for STARLINK-34571 (NORAD 64914). STARLINK-34571 can be tracked NOW for your location showing map with azimuth and elevation plus other details from your city location.







IsCatalogInMostPopularTable: catalog: 64914, numindb: 4
Update: records affected: 1



GetName: 64914 STARLINK-34571

Hit Count: updated at: Tue, 17 Feb 2026 12:12:16 GMT